Regional Weather Roundup
Issued by NWS

Home | Current Version | Previous Version | Text Only | Print | Product List | Glossary Off
Versions: 1 2 3 4 5 6 7 8 9 10 11 12 13 14 15 16 17 18 19 20 21 22 23 24 25 26 27 28 29 30 31 32 33 34 35 36 37 38 39 40 41 42 43 44 45 46 47 48 49 50

000
ASUS43 KLMK 252202
RWRKY
KENTUCKY REGIONAL WEATHER ROUNDUP
NATIONAL WEATHER SERVICE LOUISVILLE KY
600 PM EDT THU MAY 25 2017

NOTE "FAIR" INDICATES FEW OR NO CLOUDS BELOW 12,000 FEET
WITH NO SIGNIFICANT WEATHER AND/OR OBSTRUCTIONS TO VISIBILITY.

KYZ001>023-026-027-061>063-070>075-252300-
WESTERN AND SOUTH CENTRAL KENTUCKY

CITY           SKY/WX    TMP DP  RH WIND       PRES   REMARKS
PADUCAH        SUNNY     77  48  35 VRB6      29.73S
HENDERSON      MOSUNNY   73  55  53 W12       29.72S
OWENSBORO      MOSUNNY   73  56  54 W16       29.71S
HOPKINSVILLE   MOSUNNY   73  51  46 W12       29.75S
BOWLING GREEN  PTSUNNY   73  55  53 W17G24    29.74R
GLASGOW        NOT AVBL
$$

KYZ024-025-028>034-038-045-046-053-252300-
NORTH CENTRAL KENTUCKY

CITY           SKY/WX    TMP DP  RH WIND       PRES   REMARKS
LOUISVILLE/SDF PTSUNNY   70  56  61 NW12      29.68R
LOUISVILLE/LOU PTSUNNY   69  56  62 W15G22    29.68R
FORT KNOX      PTSUNNY   68  55  64 W15G24    29.69R
$$

KYZ035>037-039>044-047>052-055>060-089>105-252300-
NORTHEAST KENTUCKY

CITY           SKY/WX    TMP DP  RH WIND       PRES   REMARKS
LEXINGTON      CLOUDY    63  55  75 W13G24    29.67R
COVINGTON      CLOUDY    63  58  83 W18G24    29.62R
FRANKFORT      CLOUDY    64  55  72 W9G17     29.66R
$$

KYZ054-064>069-076>088-106>120-252300-
SOUTHEAST KENTUCKY

CITY           SKY/WX    TMP DP  RH WIND       PRES   REMARKS
JACKSON        LGT RAIN  57  56  96 MISG      29.65R FOG
LONDON         CLOUDY    60  56  86 W12       29.70R
SOMERSET       CLOUDY    63  54  72 W16G22    29.73R
MIDDLESBORO    CLOUDY    63  56  78 W5        29.72R
MONTICELLO     CLOUDY    67  56  67 W23G30    29.74R
$$





USA.gov is the U.S. government's official web portal to all federal, state and local government web resources and services.